BCO3 EGPH-EGGD

Flight info

Callsign BCO3
Flight time 0h 58m
Altitude 29000
Route GOSAM P600 FENIK L612 ELBUS UL612 DCS UN864 SUBUK DCT NOKIN N862 KARNO/N0399F280 DCT ALHUP DCT LUCSA N862 WEVBE
Aircraft A337/H-SDE3GHIJ2J3J5M1RVWXY/LB2D1

Departure

Time 2026-04-25 23:42
Airport Edinburgh Airport (EGPH)

Arrival

Time 2026-04-26 00:40
Airport Bristol Airport (EGGD)
Time Latitude Longitude Altitude Speed Heading
2026-04-25 23:26 55.95160 -3.35416 120 ft 0 kts 28°
2026-04-25 23:32 55.95140 -3.35432 116 ft 4 kts
2026-04-25 23:32 55.95116 -3.35426 116 ft 5 kts 320°
2026-04-25 23:33 55.95107 -3.35409 116 ft 2 kts 298°
2026-04-25 23:35 55.95122 -3.35454 116 ft 7 kts 300°
2026-04-25 23:35 55.95146 -3.35531 117 ft 8 kts 298°
2026-04-25 23:35 55.95173 -3.35622 115 ft 9 kts 298°
2026-04-25 23:36 55.95206 -3.35724 115 ft 10 kts 300°
2026-04-25 23:36 55.95231 -3.35793 115 ft 10 kts 308°
2026-04-25 23:36 55.95254 -3.35923 115 ft 8 kts 244°
2026-04-25 23:36 55.95225 -3.36012 117 ft 9 kts 239°
2026-04-25 23:37 55.95190 -3.36116 116 ft 10 kts 239°
2026-04-25 23:37 55.95152 -3.36233 116 ft 12 kts 239°
2026-04-25 23:37 55.95061 -3.36496 115 ft 28 kts 238°
2026-04-25 23:37 55.94969 -3.36767 116 ft 24 kts 239°
2026-04-25 23:38 55.94882 -3.37025 120 ft 24 kts 240°
2026-04-25 23:38 55.94797 -3.37283 117 ft 23 kts 239°
2026-04-25 23:38 55.94712 -3.37530 116 ft 23 kts 235°
2026-04-25 23:38 55.94617 -3.37808 117 ft 37 kts 238°
2026-04-25 23:39 55.94478 -3.38220 116 ft 39 kts 238°
2026-04-25 23:39 55.94347 -3.38604 115 ft 32 kts 240°
2026-04-25 23:39 55.94289 -3.38844 120 ft 12 kts 290°
2026-04-25 23:39 55.94318 -3.38896 116 ft 0 kts 324°
2026-04-25 23:40 55.94341 -3.38923 117 ft 14 kts 328°
2026-04-25 23:41 55.94432 -3.38914 117 ft 13 kts 52°
2026-04-25 23:41 55.94498 -3.38727 112 ft 35 kts 58°
2026-04-25 23:41 55.94729 -3.38047 114 ft 92 kts 59°
2026-04-25 23:41 55.95157 -3.36785 127 ft 141 kts 59°
2026-04-25 23:42 55.95706 -3.35148 410 ft 164 kts 60°
2026-04-25 23:42 55.96344 -3.33321 916 ft 181 kts 57°
2026-04-25 23:42 55.97288 -3.31803 1569 ft 188 kts 34°
2026-04-25 23:42 55.98410 -3.30506 2151 ft 196 kts 37°
2026-04-25 23:43 55.99614 -3.29140 2503 ft 218 kts 27°
2026-04-25 23:43 56.01174 -3.28594 2671 ft 247 kts 353°
2026-04-25 23:43 56.02759 -3.29908 3120 ft 259 kts 315°
2026-04-25 23:43 56.03598 -3.32647 3855 ft 252 kts 278°
2026-04-25 23:44 56.03459 -3.35748 4593 ft 252 kts 256°
2026-04-25 23:44 56.02954 -3.38750 5301 ft 254 kts 252°
2026-04-25 23:44 56.02399 -3.41783 5976 ft 258 kts 252°
2026-04-25 23:44 56.01871 -3.44876 6636 ft 263 kts 253°
2026-04-25 23:45 56.01369 -3.48034 7310 ft 266 kts 254°
2026-04-25 23:45 56.00882 -3.51236 8009 ft 268 kts 255°
2026-04-25 23:45 56.00407 -3.54445 8723 ft 270 kts 255°
2026-04-25 23:45 55.99929 -3.57705 9426 ft 273 kts 255°
2026-04-25 23:46 55.99445 -3.61003 10113 ft 276 kts 255°
2026-04-25 23:46 55.98945 -3.64397 10471 ft 291 kts 255°
2026-04-25 23:46 55.98417 -3.67980 10745 ft 305 kts 255°
2026-04-25 23:46 55.97869 -3.71701 11180 ft 313 kts 255°
2026-04-25 23:47 55.97310 -3.75487 11736 ft 317 kts 254°
2026-04-25 23:47 55.96745 -3.79311 12296 ft 320 kts 254°
2026-04-25 23:47 55.96171 -3.83182 12873 ft 323 kts 254°
2026-04-25 23:47 55.95592 -3.87075 13437 ft 326 kts 253°
2026-04-25 23:48 55.95000 -3.91048 14011 ft 329 kts 253°
2026-04-25 23:48 55.94406 -3.95007 14512 ft 332 kts 253°
2026-04-25 23:48 55.93642 -3.98912 15045 ft 332 kts 245°
2026-04-25 23:48 55.92515 -4.02490 15589 ft 333 kts 234°
2026-04-25 23:49 55.90992 -4.05624 16062 ft 336 kts 223°
2026-04-25 23:49 55.89143 -4.08203 16546 ft 339 kts 216°
2026-04-25 23:49 55.87161 -4.10532 17027 ft 342 kts 214°
2026-04-25 23:49 55.85150 -4.12835 17490 ft 345 kts 214°
2026-04-25 23:50 55.83124 -4.15158 17948 ft 348 kts 214°
2026-04-25 23:50 55.81082 -4.17509 18413 ft 351 kts 215°
2026-04-25 23:50 55.79033 -4.19882 18839 ft 353 kts 216°
2026-04-25 23:50 55.76987 -4.22339 19243 ft 355 kts 216°
2026-04-25 23:51 55.74867 -4.24611 19639 ft 358 kts 207°
2026-04-25 23:51 55.72502 -4.26073 20036 ft 364 kts 194°
2026-04-25 23:51 55.69968 -4.26334 20387 ft 371 kts 176°
2026-04-25 23:51 55.67436 -4.25185 20796 ft 378 kts 162°
2026-04-25 23:52 55.65025 -4.23291 21160 ft 382 kts 156°
2026-04-25 23:52 55.62670 -4.21048 21532 ft 385 kts 153°
2026-04-25 23:52 55.60347 -4.18655 21891 ft 387 kts 152°
2026-04-25 23:52 55.57991 -4.16187 22250 ft 389 kts 152°
2026-04-25 23:53 55.55680 -4.13795 22602 ft 391 kts 153°
2026-04-25 23:53 55.53289 -4.11371 22960 ft 392 kts 153°
2026-04-25 23:53 55.50896 -4.08992 23280 ft 394 kts 154°
2026-04-25 23:53 55.48495 -4.06636 23624 ft 396 kts 154°
2026-04-25 23:54 55.46079 -4.04287 23923 ft 398 kts 154°
2026-04-25 23:54 55.43644 -4.01930 24210 ft 399 kts 154°
2026-04-25 23:54 55.41213 -3.99582 24491 ft 400 kts 154°
2026-04-25 23:54 55.38769 -3.97221 24848 ft 399 kts 154°
2026-04-25 23:55 55.36346 -3.94882 25213 ft 397 kts 154°
2026-04-25 23:55 55.33926 -3.92548 25549 ft 397 kts 154°
2026-04-25 23:55 55.31506 -3.90216 25884 ft 396 kts 154°
2026-04-25 23:55 55.29090 -3.87891 26201 ft 395 kts 154°
2026-04-25 23:56 55.26687 -3.85582 26531 ft 394 kts 154°
2026-04-25 23:56 55.24267 -3.83260 26695 ft 398 kts 154°
2026-04-25 23:56 55.21836 -3.80932 27007 ft 397 kts 154°
2026-04-25 23:56 55.19422 -3.78622 27356 ft 395 kts 154°
2026-04-25 23:57 55.17010 -3.76316 27682 ft 394 kts 154°
2026-04-25 23:57 55.14596 -3.74012 27995 ft 394 kts 154°
2026-04-25 23:57 55.12195 -3.71724 28322 ft 393 kts 155°
2026-04-25 23:57 55.09799 -3.69444 28605 ft 392 kts 155°
2026-04-25 23:58 55.07401 -3.67165 28908 ft 392 kts 155°
2026-04-25 23:58 55.05015 -3.64901 29204 ft 391 kts 155°
2026-04-25 23:58 55.02610 -3.62624 29280 ft 394 kts 155°
2026-04-25 23:59 54.97741 -3.58026 29278 ft 400 kts 155°
2026-04-25 23:59 54.92848 -3.53411 29273 ft 400 kts 155°
2026-04-26 00:00 54.87909 -3.48764 29274 ft 400 kts 155°
2026-04-26 00:00 54.83012 -3.44179 29276 ft 400 kts 155°
2026-04-26 00:01 54.78107 -3.39588 29270 ft 400 kts 155°
2026-04-26 00:01 54.73166 -3.35296 29270 ft 397 kts 163°
2026-04-26 00:02 54.67827 -3.33322 29268 ft 391 kts 176°
2026-04-26 00:02 54.62410 -3.32354 29271 ft 391 kts 179°
2026-04-26 00:03 54.56991 -3.31574 29266 ft 391 kts 179°
2026-04-26 00:03 54.51524 -3.30767 29269 ft 400 kts 178°
2026-04-26 00:04 54.45887 -3.29899 29270 ft 413 kts 178°
2026-04-26 00:04 54.40074 -3.28985 29270 ft 425 kts 178°
2026-04-26 00:05 54.34157 -3.27441 29265 ft 439 kts 174°
2026-04-26 00:05 54.28073 -3.25536 29262 ft 450 kts 173°
2026-04-26 00:06 54.21801 -3.23517 29261 ft 460 kts 173°
2026-04-26 00:06 54.15438 -3.21483 29258 ft 470 kts 173°
2026-04-26 00:07 54.08954 -3.19431 29255 ft 478 kts 173°
2026-04-26 00:07 54.02403 -3.17370 29254 ft 486 kts 173°
2026-04-26 00:07 53.99081 -3.16325 29868 ft 475 kts 173°
2026-04-26 00:08 53.95807 -3.15292 29654 ft 483 kts 173°
2026-04-26 00:08 53.92548 -3.14271 29374 ft 468 kts 173°
2026-04-26 00:08 53.89384 -3.13277 29032 ft 454 kts 173°
2026-04-26 00:08 53.86333 -3.12319 28764 ft 440 kts 173°
2026-04-26 00:09 53.83355 -3.11387 28480 ft 427 kts 173°
2026-04-26 00:09 53.80486 -3.10493 28210 ft 414 kts 173°
2026-04-26 00:09 53.77690 -3.09624 27929 ft 403 kts 173°
2026-04-26 00:09 53.74966 -3.08780 27656 ft 393 kts 173°
2026-04-26 00:10 53.72287 -3.07955 27532 ft 389 kts 173°
2026-04-26 00:10 53.69631 -3.07140 27592 ft 391 kts 173°
2026-04-26 00:10 53.66938 -3.06316 27840 ft 392 kts 173°
2026-04-26 00:10 53.64263 -3.05496 28130 ft 391 kts 173°
2026-04-26 00:11 53.61576 -3.04671 28418 ft 391 kts 173°
2026-04-26 00:11 53.58908 -3.03850 28696 ft 391 kts 173°
2026-04-26 00:11 53.56234 -3.03028 28975 ft 390 kts 173°
2026-04-26 00:11 53.53575 -3.02212 29210 ft 391 kts 173°
2026-04-26 00:12 53.50875 -3.01386 29250 ft 395 kts 173°
2026-04-26 00:12 53.45421 -2.99722 29246 ft 399 kts 173°
2026-04-26 00:13 53.39948 -2.98050 29264 ft 400 kts 173°
2026-04-26 00:13 53.34479 -2.96384 29265 ft 399 kts 173°
2026-04-26 00:14 53.29891 -2.94991 29263 ft 399 kts 173°
2026-04-26 00:14 53.24427 -2.93336 29261 ft 399 kts 173°
2026-04-26 00:15 53.18952 -2.91682 29270 ft 399 kts 173°
2026-04-26 00:15 53.13483 -2.90035 29258 ft 399 kts 173°
2026-04-26 00:16 53.08016 -2.88585 29258 ft 396 kts 181°
2026-04-26 00:16 53.02523 -2.88663 29265 ft 394 kts 185°
2026-04-26 00:17 52.97012 -2.89115 29246 ft 402 kts 186°
2026-04-26 00:17 52.91332 -2.89654 29263 ft 415 kts 186°
2026-04-26 00:18 52.85527 -2.90753 29262 ft 425 kts 190°
2026-04-26 00:18 52.79700 -2.92092 29141 ft 409 kts 191°
2026-04-26 00:18 52.76944 -2.92737 28744 ft 391 kts 191°
2026-04-26 00:19 52.74278 -2.93366 28009 ft 382 kts 191°
2026-04-26 00:19 52.71653 -2.93928 27102 ft 379 kts 187°
2026-04-26 00:19 52.69034 -2.94257 26263 ft 375 kts 186°
2026-04-26 00:19 52.66457 -2.94523 25598 ft 367 kts 186°
2026-04-26 00:20 52.63937 -2.94746 25033 ft 360 kts 185°
2026-04-26 00:20 52.61423 -2.94953 24463 ft 363 kts 185°
2026-04-26 00:20 52.58895 -2.95157 23962 ft 365 kts 185°
2026-04-26 00:20 52.56356 -2.95360 23527 ft 365 kts 185°
2026-04-26 00:21 52.53790 -2.95566 23108 ft 364 kts 185°
2026-04-26 00:21 52.51313 -2.95766 22704 ft 358 kts 185°
2026-04-26 00:21 52.48806 -2.95969 22298 ft 356 kts 185°
2026-04-26 00:21 52.46365 -2.96169 21902 ft 356 kts 185°
2026-04-26 00:22 52.43893 -2.96372 21496 ft 355 kts 185°
2026-04-26 00:22 52.41422 -2.96576 21093 ft 353 kts 185°
2026-04-26 00:22 52.38971 -2.96777 20702 ft 352 kts 185°
2026-04-26 00:22 52.36532 -2.96977 20283 ft 350 kts 185°
2026-04-26 00:23 52.34108 -2.97175 19870 ft 348 kts 185°
2026-04-26 00:23 52.31693 -2.97373 19469 ft 346 kts 185°
2026-04-26 00:23 52.29293 -2.97569 19069 ft 344 kts 185°
2026-04-26 00:23 52.26909 -2.97764 18673 ft 342 kts 185°
2026-04-26 00:24 52.24569 -2.97955 18234 ft 340 kts 185°
2026-04-26 00:24 52.22218 -2.98146 17831 ft 337 kts 185°
2026-04-26 00:24 52.19852 -2.98338 17432 ft 335 kts 185°
2026-04-26 00:24 52.17565 -2.98524 17043 ft 332 kts 185°
2026-04-26 00:25 52.15233 -2.98714 16652 ft 330 kts 184°
2026-04-26 00:25 52.12966 -2.98898 16323 ft 334 kts 184°
2026-04-26 00:25 52.10563 -2.99095 16114 ft 346 kts 184°
2026-04-26 00:25 52.08149 -2.99291 15957 ft 347 kts 184°
2026-04-26 00:26 52.05700 -2.99488 15804 ft 346 kts 184°
2026-04-26 00:26 52.03308 -2.99680 15648 ft 345 kts 184°
2026-04-26 00:26 52.00910 -2.99873 15530 ft 344 kts 184°
2026-04-26 00:26 51.98514 -3.00066 15386 ft 343 kts 184°
2026-04-26 00:27 51.96144 -3.00180 15273 ft 343 kts 179°
2026-04-26 00:27 51.93792 -2.99547 14921 ft 343 kts 165°
2026-04-26 00:27 51.91530 -2.98289 14572 ft 342 kts 161°
2026-04-26 00:27 51.89322 -2.96940 14246 ft 340 kts 161°
2026-04-26 00:28 51.87104 -2.95582 13902 ft 338 kts 161°
2026-04-26 00:28 51.84907 -2.94248 13565 ft 336 kts 161°
2026-04-26 00:28 51.82745 -2.92944 13257 ft 334 kts 161°
2026-04-26 00:28 51.80607 -2.91660 13049 ft 320 kts 161°
2026-04-26 00:29 51.78563 -2.90434 12777 ft 308 kts 161°
2026-04-26 00:29 51.76584 -2.89252 12439 ft 300 kts 161°
2026-04-26 00:29 51.74612 -2.88077 11981 ft 297 kts 161°
2026-04-26 00:29 51.72703 -2.86943 11506 ft 295 kts 161°
2026-04-26 00:30 51.70691 -2.86253 11036 ft 291 kts 181°
2026-04-26 00:30 51.68689 -2.86552 10578 ft 288 kts 189°
2026-04-26 00:30 51.66739 -2.87058 10122 ft 287 kts 190°
2026-04-26 00:30 51.64776 -2.87590 9629 ft 285 kts 190°
2026-04-26 00:31 51.62823 -2.88109 9149 ft 283 kts 190°
2026-04-26 00:31 51.60891 -2.88614 8668 ft 281 kts 189°
2026-04-26 00:31 51.58956 -2.89113 8205 ft 280 kts 189°
2026-04-26 00:31 51.57044 -2.89602 7730 ft 278 kts 189°
2026-04-26 00:32 51.55129 -2.90089 7264 ft 277 kts 189°
2026-04-26 00:32 51.53233 -2.90570 6905 ft 275 kts 189°
2026-04-26 00:32 51.49436 -2.91530 6520 ft 278 kts 189°
2026-04-26 00:33 51.47592 -2.92416 6033 ft 277 kts 209°
2026-04-26 00:33 51.46188 -2.94453 5614 ft 273 kts 236°
2026-04-26 00:33 51.45492 -2.97256 5155 ft 272 kts 258°
2026-04-26 00:33 51.45260 -3.00257 4681 ft 271 kts 264°
2026-04-26 00:34 51.45149 -3.03268 4244 ft 270 kts 268°
2026-04-26 00:34 51.45030 -3.06265 3787 ft 268 kts 255°
2026-04-26 00:34 51.44217 -3.08888 3312 ft 264 kts 227°
2026-04-26 00:34 51.42753 -3.10567 2893 ft 258 kts 200°
2026-04-26 00:35 51.41040 -3.11414 2754 ft 256 kts 189°
2026-04-26 00:35 51.39256 -3.11504 2735 ft 255 kts 169°
2026-04-26 00:35 51.37637 -3.10425 2737 ft 253 kts 142°
2026-04-26 00:35 51.36581 -3.08267 2597 ft 253 kts 111°
2026-04-26 00:36 51.36338 -3.05511 2510 ft 253 kts 87°
2026-04-26 00:36 51.36540 -3.02774 2493 ft 239 kts 82°
2026-04-26 00:36 51.36800 -3.00236 2491 ft 224 kts 81°
2026-04-26 00:36 51.37086 -2.97807 2495 ft 222 kts 76°
2026-04-26 00:37 51.37357 -2.95376 2501 ft 221 kts 87°
2026-04-26 00:37 51.37425 -2.93012 2509 ft 204 kts 88°
2026-04-26 00:37 51.37498 -2.90852 2512 ft 184 kts 88°
2026-04-26 00:37 51.37582 -2.88900 2495 ft 170 kts 86°
2026-04-26 00:38 51.37684 -2.87042 2362 ft 164 kts 86°
2026-04-26 00:38 51.37762 -2.85287 2155 ft 151 kts 88°
2026-04-26 00:38 51.37815 -2.83680 1946 ft 140 kts 88°
2026-04-26 00:38 51.37874 -2.82127 1758 ft 139 kts 88°
2026-04-26 00:39 51.37932 -2.80575 1546 ft 141 kts 88°
2026-04-26 00:39 51.38007 -2.79012 1289 ft 140 kts 86°
2026-04-26 00:39 51.38073 -2.77447 1077 ft 140 kts 89°
2026-04-26 00:39 51.38126 -2.75883 888 ft 141 kts 89°
2026-04-26 00:40 51.38177 -2.74425 771 ft 142 kts 89°
2026-04-26 00:40 51.38233 -2.72854 644 ft 140 kts 88°
2026-04-26 00:40 51.38285 -2.71463 621 ft 89 kts 86°
2026-04-26 00:40 51.38308 -2.70886 621 ft 20 kts 87°
2026-04-26 00:41 51.38322 -2.70790 615 ft 11 kts 57°
2026-04-26 00:41 51.38386 -2.70736 626 ft 7 kts 23°
2026-04-26 00:41 51.38419 -2.70716 622 ft 0 kts 18°
2026-04-26 00:41 51.38424 -2.70714 623 ft 1 kts 17°
2026-04-26 00:42 51.38440 -2.70713 625 ft 7 kts 352°
2026-04-26 00:42 51.38471 -2.70805 622 ft 6 kts 262°
2026-04-26 00:42 51.38466 -2.70917 629 ft 12 kts 266°
2026-04-26 00:42 51.38462 -2.71053 618 ft 12 kts 265°
2026-04-26 00:43 51.38456 -2.71195 628 ft 13 kts 266°
2026-04-26 00:43 51.38450 -2.71340 627 ft 15 kts 266°
2026-04-26 00:43 51.38443 -2.71522 622 ft 19 kts 266°
2026-04-26 00:43 51.38443 -2.71646 620 ft 6 kts 286°
2026-04-26 00:44 51.38461 -2.71671 623 ft 1 kts 345°
2026-04-26 00:44 51.38468 -2.71670 620 ft 4 kts 358°
2026-04-26 00:44 51.38496 -2.71671 616 ft 1 kts 358°
2026-04-26 00:44 51.38509 -2.71677 625 ft 0 kts 344°
2026-04-26 00:45 51.38534 -2.71690 627 ft 1 kts 346°
2026-04-26 00:45 51.38539 -2.71690 626 ft 0 kts 355°